| time (UTC) | temp C | wind direction | speed KPH | gust KPH | rain 1hr cm | rain 24hr cm | rain mn cm | humidity % | barometer mb |
| 20260906115018 | 21 | 75 | 4.8 | 8.0 | 0.00 | 0.00 | 0.00 | 85 | 1018.1 |
| 20260906114025 | 21 | 75 | 4.8 | 8.0 | 0.00 | 0.00 | 0.00 | 85 | 1018.0 |
| 20260906113019 | 21 | 72 | 4.8 | 6.4 | 0.00 | 0.00 | 0.00 | 85 | 1017.8 |
| 20260906112019 | 21 | 77 | 4.8 | 8.0 | 0.00 | 0.00 | 0.00 | 84 | 1017.7 |
| 20260906111025 | 21 | 73 | 3.2 | 8.0 | 0.00 | 0.00 | 0.00 | 84 | 1017.6 |
| 20260906110045 | 21 | 78 | 3.2 | 6.4 | 0.00 | 0.00 | 0.00 | 84 | 1017.6 |
| 20260906105025 | 21 | 78 | 3.2 | 4.8 | 0.00 | 0.00 | 0.00 | 84 | 1017.5 |
| 20260906104026 | 21 | 74 | 3.2 | 6.4 | 0.00 | 0.00 | 0.00 | 84 | 1017.3 |
| 20260906103026 | 21 | 65 | 3.2 | 4.8 | 0.00 | 0.00 | 0.00 | 84 | 1017.1 |
| 20260906102026 | 21 | 81 | 3.2 | 6.4 | 0.00 | 0.00 | 0.00 | 84 | 1017.1 |
| 20260906101026 | 21 | 76 | 3.2 | 8.0 | 0.00 | 0.00 | 0.00 | 84 | 1017.1 |
| 20260906100026 | 21 | 69 | 1.6 | 6.4 | 0.00 | 0.00 | 0.00 | 83 | 1017.1 |
| 20260906095026 | 22 | 82 | 3.2 | 4.8 | 0.00 | 0.00 | 0.00 | 83 | 1017.1 |
| 20260906094026 | 22 | 71 | 3.2 | 4.8 | 0.00 | 0.00 | 0.00 | 82 | 1017.0 |
| 20260906093027 | 22 | 71 | 3.2 | 4.8 | 0.00 | 0.00 | 0.00 | 82 | 1017.0 |
| 20260906092027 | 22 | 82 | 3.2 | 4.8 | 0.00 | 0.00 | 0.00 | 81 | 1017.0 |
| 20260906091107 | 22 | 79 | 3.2 | 6.4 | 0.00 | 0.00 | 0.00 | 82 | 1017.0 |
| 20260906090027 | 22 | 69 | 3.2 | 4.8 | 0.00 | 0.00 | 0.00 | 82 | 1016.9 |
| 20260906085027 | 22 | 86 | 1.6 | 3.2 | 0.00 | 0.00 | 0.00 | 81 | 1017.0 |
| 20260906084048 | 22 | 95 | 3.2 | 4.8 | 0.00 | 0.00 | 0.00 | 81 | 1016.9 |
| 20260906083028 | 22 | 87 | 1.6 | 3.2 | 0.00 | 0.00 | 0.00 | 82 | 1016.8 |
| 20260906082028 | 22 | 90 | 1.6 | 4.8 | 0.00 | 0.00 | 0.00 | 82 | 1016.8 |
| 20260906081028 | 22 | 93 | 3.2 | 6.4 | 0.00 | 0.00 | 0.00 | 83 | 1016.9 |
| 20260906080048 | 22 | 78 | 3.2 | 4.8 | 0.00 | 0.00 | 0.00 | 83 | 1016.9 |
| 20260906075049 | 22 | 96 | 3.2 | 4.8 | 0.00 | 0.00 | 0.00 | 83 | 1016.9 |
| 20260906074048 | 22 | 86 | 1.6 | 4.8 | 0.00 | 0.00 | 0.00 | 83 | 1016.8 |
| 20260906073028 | 22 | 87 | 3.2 | 6.4 | 0.00 | 0.00 | 0.00 | 83 | 1016.9 |
| 20260906072029 | 22 | 83 | 1.6 | 3.2 | 0.00 | 0.00 | 0.00 | 83 | 1017.0 |
| 20260906071029 | 22 | 90 | 1.6 | 3.2 | 0.00 | 0.00 | 0.00 | 84 | 1017.0 |
| 20260906070029 | 22 | 72 | 3.2 | 4.8 | 0.00 | 0.00 | 0.00 | 84 | 1016.9 |
| 20260906065029 | 22 | 64 | 3.2 | 8.0 | 0.00 | 0.00 | 0.00 | 84 | 1017.0 |
| 20260906064029 | 22 | 72 | 3.2 | 4.8 | 0.00 | 0.00 | 0.00 | 83 | 1016.9 |
| 20260906063029 | 22 | 70 | 3.2 | 6.4 | 0.00 | 0.00 | 0.00 | 83 | 1016.9 |
| 20260906062030 | 22 | 77 | 3.2 | 4.8 | 0.00 | 0.00 | 0.00 | 83 | 1016.9 |
| 20260906061018 | 22 | 71 | 3.2 | 8.0 | 0.00 | 0.00 | 0.00 | 83 | 1016.9 |
| 20260906060030 | 22 | 86 | 1.6 | 4.8 | 0.00 | 0.00 | 0.00 | 83 | 1017.0 |
| 20260906055030 | 22 | 63 | 3.2 | 8.0 | 0.00 | 0.00 | 0.00 | 84 | 1016.9 |
| 20260906054030 | 22 | 68 | 4.8 | 6.4 | 0.00 | 0.00 | 0.00 | 85 | 1016.9 |
| 20260906053031 | 22 | 67 | 1.6 | 6.4 | 0.00 | 0.00 | 0.00 | 86 | 1016.8 |
| 20260906052019 | 22 | 76 | 3.2 | 8.0 | 0.00 | 0.00 | 0.00 | 86 | 1016.6 |
| 20260906051019 | 22 | 76 | 3.2 | 9.7 | 0.00 | 0.00 | 0.00 | 87 | 1016.5 |
| 20260906050019 | 22 | 77 | 4.8 | 11.3 | 0.00 | 0.00 | 0.00 | 87 | 1016.5 |
| 20260906045020 | 22 | 82 | 4.8 | 14.5 | 0.00 | 0.00 | 0.00 | 87 | 1016.4 |
| 20260906044017 | 22 | 69 | 4.8 | 11.3 | 0.00 | 0.00 | 0.00 | 87 | 1016.4 |
| 20260906043017 | 22 | 65 | 3.2 | 11.3 | 0.00 | 0.00 | 0.00 | 87 | 1016.2 |
| 20260906042020 | 22 | 77 | 6.4 | 11.3 | 0.00 | 0.00 | 0.00 | 87 | 1016.2 |
| 20260906041020 | 22 | 66 | 4.8 | 12.9 | 0.00 | 0.00 | 0.00 | 87 | 1016.1 |
| 20260906040017 | 22 | 67 | 4.8 | 12.9 | 0.00 | 0.00 | 0.00 | 86 | 1016.0 |
| 20260906035018 | 22 | 74 | 4.8 | 11.3 | 0.00 | 0.00 | 0.00 | 86 | 1016.0 |
| 20260906034018 | 22 | 72 | 6.4 | 14.5 | 0.00 | 0.00 | 0.00 | 86 | 1016.0 |
| 20260906033018 | 22 | 70 | 4.8 | 11.3 | 0.00 | 0.00 | 0.00 | 86 | 1016.0 |
| 20260906032018 | 22 | 79 | 4.8 | 11.3 | 0.00 | 0.00 | 0.00 | 86 | 1016.0 |
| 20260906031018 | 22 | 75 | 6.4 | 12.9 | 0.00 | 0.00 | 0.00 | 85 | 1016.0 |
| 20260906030018 | 22 | 69 | 4.8 | 12.9 | 0.00 | 0.00 | 0.00 | 85 | 1016.0 |
| 20260906025019 | 22 | 66 | 4.8 | 11.3 | 0.00 | 0.00 | 0.00 | 84 | 1016.0 |
| 20260906024019 | 22 | 74 | 6.4 | 11.3 | 0.00 | 0.00 | 0.00 | 84 | 1015.9 |
| 20260906023019 | 22 | 73 | 4.8 | 14.5 | 0.00 | 0.00 | 0.00 | 84 | 1016.0 |
| 20260906022019 | 22 | 55 | 4.8 | 9.7 | 0.00 | 0.00 | 0.00 | 83 | 1016.1 |
| 20260906021019 | 22 | 70 | 4.8 | 11.3 | 0.00 | 0.00 | 0.00 | 83 | 1016.2 |
| 20260906020016 | 22 | 70 | 4.8 | 9.7 | 0.00 | 0.00 | 0.00 | 83 | 1016.1 |
| 20260906015019 | 22 | 74 | 4.8 | 8.0 | 0.00 | 0.00 | 0.00 | 82 | 1016.2 |
| 20260906014020 | 22 | 57 | 4.8 | 8.0 | 0.00 | 0.00 | 0.00 | 82 | 1016.1 |
| 20260906013020 | 22 | 58 | 4.8 | 11.3 | 0.00 | 0.00 | 0.00 | 82 | 1016.1 |
| 20260906012040 | 22 | 62 | 3.2 | 9.7 | 0.00 | 0.00 | 0.00 | 82 | 1016.0 |
| 20260906011017 | 22 | 47 | 3.2 | 9.7 | 0.00 | 0.00 | 0.00 | 82 | 1015.8 |
| 20260906010017 | 22 | 73 | 4.8 | 12.9 | 0.00 | 0.00 | 0.00 | 82 | 1015.6 |
| 20260906005017 | 22 | 60 | 4.8 | 12.9 | 0.00 | 0.00 | 0.00 | 83 | 1015.5 |
| 20260906004017 | 22 | 48 | 4.8 | 9.7 | 0.00 | 0.00 | 0.00 | 84 | 1015.4 |
| 20260906003018 | 22 | 64 | 3.2 | 9.7 | 0.00 | 0.00 | 0.00 | 83 | 1015.4 |
| 20260906002019 | 22 | 54 | 4.8 | 12.9 | 0.00 | 0.00 | 0.00 | 83 | 1015.3 |
| 20260906001018 | 22 | 78 | 3.2 | 9.7 | 0.00 | 0.00 | 0.00 | 83 | 1015.4 |
| 20260906000018 | 22 | 79 | 4.8 | 12.9 | 0.00 | 0.00 | 0.00 | 82 | 1015.4 |
| 20260905235018 | 22 | 39 | 4.8 | 14.5 | 0.00 | 0.00 | 0.00 | 82 | 1015.5 |
| 20260905234018 | 22 | 65 | 4.8 | 11.3 | 0.00 | 0.00 | 0.00 | 82 | 1015.5 |
| 20260905233019 | 22 | 40 | 4.8 | 11.3 | 0.00 | 0.00 | 0.00 | 82 | 1015.5 |
| 20260905232019 | 22 | 46 | 4.8 | 14.5 | 0.00 | 0.00 | 0.00 | 82 | 1015.3 |
| 20260905231019 | 22 | 50 | 4.8 | 11.3 | 0.00 | 0.00 | 0.00 | 82 | 1015.2 |
| 20260905230019 | 22 | 54 | 4.8 | 12.9 | 0.00 | 0.00 | 0.00 | 81 | 1015.1 |
| 20260905225019 | 23 | 54 | 4.8 | 16.1 | 0.00 | 0.00 | 0.00 | 81 | 1015.2 |
| 20260905224100 | 23 | 15 | 4.8 | 8.0 | 0.00 | 0.00 | 0.00 | 81 | 1015.3 |
| 20260905223017 | 23 | 61 | 6.4 | 14.5 | 0.00 | 0.00 | 0.00 | 81 | 1015.3 |
| 20260905222018 | 23 | 23 | 4.8 | 11.3 | 0.00 | 0.00 | 0.00 | 80 | 1015.1 |
| 20260905221037 | 24 | 46 | 4.8 | 11.3 | 0.00 | 0.00 | 0.00 | 80 | 1015.1 |
| 20260905220020 | 24 | 80 | 4.8 | 9.7 | 0.00 | 0.00 | 0.00 | 79 | 1015.0 |
| 20260905215017 | 25 | 36 | 4.8 | 12.9 | 0.00 | 0.00 | 0.00 | 78 | 1014.9 |
| 20260905214017 | 25 | 59 | 4.8 | 12.9 | 0.00 | 0.00 | 0.00 | 77 | 1014.7 |
| 20260905213017 | 25 | 51 | 4.8 | 14.5 | 0.00 | 0.00 | 0.00 | 77 | 1014.6 |
| 20260905212018 | 25 | 57 | 4.8 | 12.9 | 0.00 | 0.00 | 0.00 | 77 | 1014.6 |
| 20260905211018 | 25 | 72 | 4.8 | 16.1 | 0.00 | 0.00 | 0.00 | 78 | 1014.7 |
| 20260905210018 | 26 | 44 | 4.8 | 11.3 | 0.00 | 0.00 | 0.00 | 74 | 1014.7 |
| 20260905205019 | 26 | 51 | 6.4 | 17.7 | 0.00 | 0.00 | 0.00 | 72 | 1014.7 |
| 20260905204019 | 26 | 26 | 4.8 | 17.7 | 0.00 | 0.00 | 0.00 | 72 | 1014.6 |
| 20260905203059 | 25 | 22 | 6.4 | 14.5 | 0.00 | 0.00 | 0.00 | 75 | 1014.7 |
| 20260905202019 | 25 | 7 | 4.8 | 12.9 | 0.00 | 0.00 | 0.00 | 76 | 1014.7 |
| 20260905201039 | 26 | 33 | 4.8 | 11.3 | 0.00 | 0.00 | 0.00 | 74 | 1014.8 |
| 20260905200019 | 26 | 52 | 6.4 | 14.5 | 0.00 | 0.00 | 0.00 | 72 | 1014.8 |
| 20260905195039 | 26 | 36 | 4.8 | 14.5 | 0.00 | 0.00 | 0.00 | 71 | 1014.8 |
| 20260905194016 | 26 | 42 | 4.8 | 16.1 | 0.00 | 0.00 | 0.00 | 74 | 1014.9 |
| 20260905193020 | 26 | 49 | 6.4 | 14.5 | 0.00 | 0.00 | 0.00 | 73 | 1014.9 |
| 20260905192020 | 26 | 44 | 4.8 | 19.3 | 0.00 | 0.00 | 0.00 | 75 | 1015.0 |
| 20260905191020 | 26 | 32 | 4.8 | 12.9 | 0.00 | 0.00 | 0.00 | 75 | 1014.9 |
| 20260905190037 | 26 | 29 | 3.2 | 12.9 | 0.00 | 0.00 | 0.00 | 74 | 1014.9 |
| 20260905185017 | 26 | 31 | 4.8 | 16.1 | 0.00 | 0.00 | 0.00 | 75 | 1015.1 |
| 20260905184018 | 25 | 32 | 3.2 | 11.3 | 0.00 | 0.00 | 0.00 | 76 | 1015.0 |
| 20260905183017 | 25 | 36 | 4.8 | 12.9 | 0.00 | 0.00 | 0.00 | 77 | 1015.0 |
| 20260905182018 | 25 | 359 | 3.2 | 9.7 | 0.00 | 0.00 | 0.00 | 77 | 1015.1 |
| 20260905181018 | 25 | 44 | 4.8 | 14.5 | 0.00 | 0.00 | 0.00 | 76 | 1015.0 |
| 20260905180018 | 25 | 21 | 4.8 | 11.3 | 0.00 | 0.00 | 0.00 | 77 | 1014.9 |
| 20260905175018 | 25 | 12 | 3.2 | 11.3 | 0.00 | 0.00 | 0.00 | 78 | 1014.9 |
| 20260905174018 | 25 | 13 | 4.8 | 14.5 | 0.00 | 0.00 | 0.00 | 77 | 1015.0 |
| 20260905173018 | 25 | 3 | 4.8 | 12.9 | 0.00 | 0.00 | 0.00 | 77 | 1014.9 |
| 20260905172039 | 25 | 6 | 4.8 | 14.5 | 0.00 | 0.00 | 0.00 | 77 | 1015.0 |
| 20260905171019 | 25 | 67 | 6.4 | 14.5 | 0.00 | 0.00 | 0.00 | 78 | 1015.0 |
| 20260905170019 | 25 | 5 | 3.2 | 11.3 | 0.00 | 0.00 | 0.00 | 80 | 1015.2 |
| 20260905165019 | 25 | 34 | 3.2 | 8.0 | 0.00 | 0.00 | 0.00 | 80 | 1015.2 |
| 20260905164019 | 25 | 55 | 4.8 | 11.3 | 0.00 | 0.00 | 0.00 | 80 | 1015.2 |
| 20260905163019 | 25 | 61 | 4.8 | 11.3 | 0.00 | 0.00 | 0.00 | 79 | 1015.2 |
| 20260905162040 | 25 | 46 | 6.4 | 14.5 | 0.00 | 0.00 | 0.00 | 78 | 1015.1 |
| 20260905161017 | 25 | 48 | 4.8 | 12.9 | 0.00 | 0.00 | 0.00 | 78 | 1015.0 |
| 20260905160037 | 25 | 66 | 4.8 | 14.5 | 0.00 | 0.00 | 0.00 | 79 | 1014.9 |
| 20260905155017 | 25 | 19 | 3.2 | 11.3 | 0.00 | 0.00 | 0.00 | 81 | 1014.8 |
| 20260905154021 | 25 | 30 | 4.8 | 12.9 | 0.00 | 0.00 | 0.00 | 82 | 1014.8 |
| 20260905153038 | 25 | 28 | 6.4 | 11.3 | 0.00 | 0.00 | 0.00 | 82 | 1014.7 |
| 20260905152020 | 25 | 77 | 4.8 | 11.3 | 0.00 | 0.00 | 0.00 | 82 | 1014.6 |
| 20260905151038 | 25 | 36 | 3.2 | 9.7 | 0.00 | 0.00 | 0.00 | 82 | 1014.5 |
| 20260905150018 | 25 | 52 | 3.2 | 9.7 | 0.00 | 0.00 | 0.00 | 82 | 1014.5 |
| 20260905145019 | 25 | 78 | 6.4 | 12.9 | 0.00 | 0.00 | 0.00 | 81 | 1014.4 |
| 20260905144018 | 25 | 43 | 3.2 | 9.7 | 0.00 | 0.00 | 0.00 | 82 | 1014.3 |
| 20260905143019 | 25 | 40 | 3.2 | 11.3 | 0.00 | 0.00 | 0.00 | 82 | 1014.2 |
| 20260905142018 | 25 | 66 | 3.2 | 9.7 | 0.00 | 0.00 | 0.00 | 83 | 1014.2 |
| 20260905141019 | 24 | 77 | 4.8 | 14.5 | 0.00 | 0.00 | 0.00 | 84 | 1014.1 |
| 20260905140019 | 24 | 56 | 3.2 | 9.7 | 0.00 | 0.00 | 0.00 | 87 | 1014.2 |
| 20260905135019 | 24 | 29 | 3.2 | 11.3 | 0.00 | 0.00 | 0.00 | 87 | 1014.3 |
| 20260905134019 | 24 | 58 | 3.2 | 9.7 | 0.00 | 0.00 | 0.00 | 88 | 1014.4 |
| 20260905133019 | 23 | 41 | 3.2 | 8.0 | 0.00 | 0.00 | 0.00 | 88 | 1014.4 |
| 20260905132017 | 23 | 24 | 3.2 | 8.0 | 0.00 | 0.00 | 0.00 | 89 | 1014.0 |
| 20260905131017 | 23 | 21 | 3.2 | 8.0 | 0.00 | 0.00 | 0.00 | 89 | 1014.0 |
| 20260905130100 | 23 | 63 | 1.6 | 4.8 | 0.00 | 0.00 | 0.00 | 89 | 1014.0 |
| 20260905125020 | 23 | 23 | 3.2 | 6.4 | 0.00 | 0.00 | 0.00 | 89 | 1013.8 |
| 20260905124020 | 23 | 358 | 1.6 | 4.8 | 0.00 | 0.00 | 0.00 | 90 | 1013.6 |
| 20260905123017 | 23 | 311 | 0.0 | 1.6 | 0.00 | 0.00 | 0.00 | 91 | 1013.5 |
| 20260905122037 | 23 | 56 | 1.6 | 4.8 | 0.00 | 0.00 | 0.00 | 92 | 1013.3 |
| 20260905121017 | 23 | 16 | 1.6 | 3.2 | 0.00 | 0.00 | 0.00 | 92 | 1013.4 |
| 20260905120018 | 22 | 36 | 0.0 | 1.6 | 0.00 | 0.00 | 0.00 | 93 | 1013.2 |